Atlanta Dekalb, GA

2:52 PM EDT on April 27, 2017 (GMT -0400)
Dekalb-Peachtree

Weather History for KPDK - October, 2012

Change the Weather History Date:

Tuesday, October 9, 2012

  Actual Average Record
Temperature  
Mean Temperature 58 °F 64 °F  
Max Temperature 68 °F 75 °F 85 °F (2014)
Min Temperature 51 °F 54 °F 36 °F (2000)
Degree Days  
Heating Degree Days 6 3  
Month to date heating degree days 20  
Since 1 July heating degree days 30  
Cooling Degree Days 0 2  
Month to date cooling degree days 26  
Year to date cooling degree days 1730  
Growing Degree Days 8 (Base 50)    
Moisture  
Dew Point 49 °F    
Average Humidity 79    
Maximum Humidity 93    
Minimum Humidity 52    
Precipitation  
Precipitation 0.00 in 0.11 in 0.18 in (2007)
Month to date precipitation 1.31  
Year to date precipitation 42.45  
Sea Level Pressure  
Sea Level Pressure 30.12 in    
Wind  
Wind Speed 2 mph (East)    
Max Wind Speed 8 mph    
Max Gust Speed -    
Visibility 9 miles    
Events      
T = Trace of Precipitation, MM = Missing Value Source: NWS Daily Summary

Daily Weather History Graph

Daily Weather History Graph

Search for Another Location

Airport or City:

Trip Planner

Search our weather history database for the weather conditions in past years. The results will help you decide how hot, cold, wet, or windy it might be!

Date:

Astronomy

Oct. 09, 2012 Rise Set
Actual Time 7:37 AM EDT 7:10 PM EDT
Civil Twilight 7:12 AM EDT 7:35 PM EDT
Nautical Twilight 6:43 AM EDT 8:04 PM EDT
Astronomical Twilight 6:14 AM EDT 8:32 PM EDT
Moon 1:29 AM EDT (10/9) 3:22 PM EDT (10/9)
Length of Visible Light 12h 22m
Length of Day
11h 32m
Last Quarter, 37% of the Moon is Illuminated
Oct 9
Last Quarter
Oct 15
New
Oct 21
First Quarter
Oct 29
Full
Nov 6
Last Quarter

Hourly Weather History & Observations

Time (EDT) Temp. Dew Point Humidity Pressure Visibility Wind Dir Wind Speed Gust Speed Precip Events Conditions
12:05 AM 53.6 °F 48.2 °F 82% 30.14 in 10.0 mi East 4.6 mph - N/A   Overcast
12:53 AM 53.1 °F 48.0 °F 83% 30.13 in 10.0 mi East 4.6 mph - N/A   Overcast
1:53 AM 53.1 °F 48.0 °F 83% 30.13 in 9.0 mi East 3.5 mph - N/A   Overcast
2:53 AM 52.0 °F 48.0 °F 86% 30.13 in 9.0 mi Calm Calm - N/A   Overcast
3:53 AM 51.8 °F 48.2 °F 88% 30.12 in 9.0 mi Calm Calm - N/A   Overcast
4:15 AM 51.8 °F 48.2 °F 88% 30.12 in 9.0 mi Calm Calm - N/A   Overcast
4:53 AM 51.8 °F 48.2 °F 88% 30.12 in 8.0 mi ENE 3.5 mph - N/A   Overcast
5:53 AM 53.1 °F 48.9 °F 86% 30.12 in 8.0 mi Calm Calm - N/A   Overcast
6:49 AM 51.8 °F 48.2 °F 88% 30.14 in 7.0 mi Calm Calm - N/A   Overcast
6:53 AM 52.0 °F 48.9 °F 89% 30.14 in 7.0 mi Calm Calm - N/A   Overcast
7:53 AM 51.8 °F 48.2 °F 88% 30.15 in 7.0 mi Calm Calm - N/A   Overcast
8:29 AM 51.8 °F 48.2 °F 88% 30.15 in 7.0 mi Calm Calm - N/A   Overcast
8:36 AM 51.8 °F 48.2 °F 88% 30.15 in 7.0 mi ESE 3.5 mph - N/A   Overcast
8:53 AM 52.0 °F 48.9 °F 89% 30.16 in 7.0 mi Calm Calm - N/A   Overcast
9:26 AM 53.6 °F 48.2 °F 82% 30.16 in 7.0 mi Variable 3.5 mph - N/A   Overcast
9:40 AM 53.6 °F 48.2 °F 82% 30.16 in 7.0 mi Calm Calm - N/A   Overcast
9:53 AM 54.0 °F 48.9 °F 83% 30.17 in 8.0 mi East 4.6 mph - N/A   Overcast
10:49 AM 57.2 °F 50.0 °F 77% 30.17 in 9.0 mi Variable 4.6 mph - N/A   Overcast
10:53 AM 55.9 °F 50.0 °F 80% 30.17 in 9.0 mi East 3.5 mph - N/A   Overcast
11:53 AM 59.0 °F 50.0 °F 72% 30.14 in 10.0 mi East 3.5 mph - N/A   Overcast
12:53 PM 60.1 °F 48.9 °F 67% 30.14 in 10.0 mi Calm Calm - N/A   Overcast
1:53 PM 64.0 °F 48.9 °F 58% 30.11 in 10.0 mi Variable 3.5 mph - N/A   Mostly Cloudy
2:53 PM 66.9 °F 50.0 °F 54% 30.08 in 10.0 mi NNW 8.1 mph - N/A   Scattered Clouds
3:53 PM 66.0 °F 48.9 °F 54% 30.07 in 10.0 mi WSW 5.8 mph - N/A   Clear
4:53 PM 66.9 °F 48.9 °F 52% 30.06 in 10.0 mi Calm Calm - N/A   Partly Cloudy
5:53 PM 66.0 °F 48.9 °F 54% 30.05 in 10.0 mi Calm Calm - N/A   Clear
6:53 PM 64.0 °F 51.1 °F 63% 30.05 in 10.0 mi Calm Calm - N/A   Clear
7:53 PM 57.9 °F 52.0 °F 81% 30.07 in 9.0 mi Calm Calm - N/A   Clear
8:53 PM 55.0 °F 51.1 °F 86% 30.08 in 10.0 mi Calm Calm - N/A   Clear
9:53 PM 54.0 °F 50.0 °F 86% 30.10 in 9.0 mi Calm Calm - N/A   Clear
10:53 PM 52.0 °F 50.0 °F 93% 30.11 in 8.0 mi Calm Calm - N/A   Clear
11:53 PM 54.0 °F 51.1 °F 90% 30.11 in 8.0 mi Calm Calm - N/A   Clear